SKK046 DRRN-DFFD

Flight info

Callsign SKK046
Flight time 0h 42m
Altitude 24000
Route BANGA1W BANGA G854 BULSA EDGAS1L
Aircraft B38M/M-SDE1FGHILORVWXY/HB1

Departure

Time 2026-04-29 17:09
Airport Diori Hamani International Airport (DRRN)

Arrival

Time 2026-04-29 17:52
Airport Ouagadougou Thomas Sankara International Airport (DFFD)
Time Latitude Longitude Altitude Speed Heading
2026-04-29 16:50 13.47828 2.17897 733 ft 0 kts 177°
2026-04-29 16:57 13.47833 2.17896 733 ft 4 kts 177°
2026-04-29 16:57 13.47860 2.17895 733 ft 4 kts 177°
2026-04-29 16:58 13.47882 2.17894 733 ft 0 kts 176°
2026-04-29 17:03 13.47881 2.17895 733 ft 0 kts 161°
2026-04-29 17:03 13.47880 2.17900 732 ft 1 kts 94°
2026-04-29 17:03 13.47885 2.17950 733 ft 14 kts 84°
2026-04-29 17:03 13.47893 2.18057 732 ft 15 kts 88°
2026-04-29 17:04 13.47897 2.18170 731 ft 15 kts 87°
2026-04-29 17:04 13.47902 2.18283 732 ft 16 kts 87°
2026-04-29 17:04 13.47907 2.18400 730 ft 16 kts 87°
2026-04-29 17:04 13.47912 2.18489 731 ft 9 kts 82°
2026-04-29 17:05 13.47965 2.18525 729 ft 11 kts 358°
2026-04-29 17:05 13.48032 2.18529 729 ft 9 kts 38°
2026-04-29 17:05 13.48048 2.18597 729 ft 12 kts 88°
2026-04-29 17:05 13.48052 2.18691 728 ft 15 kts 87°
2026-04-29 17:06 13.48058 2.18805 729 ft 18 kts 87°
2026-04-29 17:06 13.48064 2.18941 726 ft 20 kts 87°
2026-04-29 17:06 13.48070 2.19096 726 ft 23 kts 87°
2026-04-29 17:06 13.48078 2.19271 724 ft 26 kts 87°
2026-04-29 17:07 13.48088 2.19464 726 ft 28 kts 88°
2026-04-29 17:07 13.48093 2.19614 722 ft 14 kts 87°
2026-04-29 17:07 13.48103 2.19688 724 ft 10 kts 63°
2026-04-29 17:07 13.48174 2.19707 720 ft 13 kts 357°
2026-04-29 17:08 13.48267 2.19702 721 ft 8 kts 357°
2026-04-29 17:08 13.48286 2.19683 722 ft 4 kts 286°
2026-04-29 17:08 13.48285 2.19594 719 ft 33 kts 266°
2026-04-29 17:08 13.48265 2.19155 722 ft 88 kts 267°
2026-04-29 17:09 13.48229 2.18381 731 ft 130 kts 268°
2026-04-29 17:09 13.48180 2.17330 741 ft 162 kts 267°
2026-04-29 17:09 13.48147 2.16169 1142 ft 164 kts 269°
2026-04-29 17:09 13.48112 2.14952 1450 ft 181 kts 268°
2026-04-29 17:10 13.47896 2.13604 1603 ft 204 kts 252°
2026-04-29 17:10 13.47322 2.12163 1742 ft 228 kts 246°
2026-04-29 17:10 13.46622 2.10644 2117 ft 242 kts 245°
2026-04-29 17:10 13.45866 2.09040 2703 ft 254 kts 245°
2026-04-29 17:11 13.45094 2.07373 3379 ft 262 kts 246°
2026-04-29 17:11 13.44295 2.05661 4091 ft 269 kts 245°
2026-04-29 17:11 13.43459 2.03904 4748 ft 278 kts 246°
2026-04-29 17:11 13.42810 2.02025 5508 ft 280 kts 256°
2026-04-29 17:12 13.42270 2.00082 6285 ft 284 kts 255°
2026-04-29 17:12 13.41717 1.98152 7043 ft 289 kts 255°
2026-04-29 17:12 13.41136 1.96160 7808 ft 293 kts 254°
2026-04-29 17:12 13.40732 1.94799 8317 ft 296 kts 253°
2026-04-29 17:13 13.39925 1.92101 9362 ft 302 kts 253°
2026-04-29 17:13 13.39303 1.90023 10073 ft 309 kts 253°
2026-04-29 17:13 13.38653 1.87854 10555 ft 325 kts 252°
2026-04-29 17:13 13.37973 1.85584 11131 ft 337 kts 252°
2026-04-29 17:14 13.37281 1.83276 11951 ft 341 kts 252°
2026-04-29 17:14 13.36576 1.80928 12702 ft 348 kts 252°
2026-04-29 17:14 13.35859 1.78536 13532 ft 353 kts 252°
2026-04-29 17:14 13.35130 1.76107 14285 ft 358 kts 252°
2026-04-29 17:15 13.34403 1.73688 15160 ft 358 kts 252°
2026-04-29 17:15 13.33669 1.71236 15999 ft 360 kts 252°
2026-04-29 17:15 13.32929 1.68769 16823 ft 362 kts 252°
2026-04-29 17:15 13.32187 1.66292 17646 ft 364 kts 252°
2026-04-29 17:16 13.31439 1.63799 18379 ft 366 kts 252°
2026-04-29 17:16 13.30695 1.61321 19005 ft 369 kts 252°
2026-04-29 17:16 13.29937 1.58795 19630 ft 372 kts 252°
2026-04-29 17:16 13.29171 1.56247 20253 ft 374 kts 252°
2026-04-29 17:17 13.28401 1.53682 20867 ft 377 kts 252°
2026-04-29 17:17 13.27626 1.51100 21477 ft 380 kts 252°
2026-04-29 17:17 13.26842 1.48495 22060 ft 383 kts 252°
2026-04-29 17:17 13.26053 1.45873 22649 ft 386 kts 252°
2026-04-29 17:18 13.25258 1.43232 23212 ft 389 kts 252°
2026-04-29 17:18 13.24458 1.40574 23476 ft 388 kts 252°
2026-04-29 17:18 13.23661 1.37930 23696 ft 387 kts 253°
2026-04-29 17:18 13.22868 1.35295 23807 ft 386 kts 253°
2026-04-29 17:19 13.22074 1.32662 23818 ft 385 kts 252°
2026-04-29 17:19 13.21293 1.30074 23815 ft 385 kts 252°
2026-04-29 17:19 13.20491 1.27419 23814 ft 385 kts 252°
2026-04-29 17:19 13.19708 1.24824 23818 ft 385 kts 252°
2026-04-29 17:20 13.18906 1.22169 23824 ft 385 kts 252°
2026-04-29 17:20 13.18123 1.19578 23824 ft 385 kts 252°
2026-04-29 17:20 13.17328 1.16948 23823 ft 385 kts 252°
2026-04-29 17:20 13.16535 1.14325 23826 ft 385 kts 252°
2026-04-29 17:21 13.15740 1.11694 23824 ft 384 kts 252°
2026-04-29 17:21 13.14946 1.09071 23822 ft 385 kts 252°
2026-04-29 17:21 13.14150 1.06441 23829 ft 386 kts 252°
2026-04-29 17:21 13.13355 1.03817 23829 ft 386 kts 252°
2026-04-29 17:22 13.12560 1.01189 23829 ft 386 kts 252°
2026-04-29 17:22 13.11763 0.98560 23828 ft 386 kts 252°
2026-04-29 17:22 13.10964 0.95928 23827 ft 387 kts 252°
2026-04-29 17:22 13.10166 0.93294 23829 ft 387 kts 252°
2026-04-29 17:23 13.09378 0.90697 23830 ft 386 kts 252°
2026-04-29 17:23 13.08581 0.88071 23831 ft 386 kts 252°
2026-04-29 17:23 13.07780 0.85433 23831 ft 387 kts 252°
2026-04-29 17:23 13.06981 0.82802 23833 ft 386 kts 252°
2026-04-29 17:24 13.06182 0.80174 23832 ft 385 kts 252°
2026-04-29 17:24 13.05383 0.77544 23839 ft 386 kts 252°
2026-04-29 17:24 13.04581 0.74906 23840 ft 388 kts 252°
2026-04-29 17:24 13.03775 0.72257 23842 ft 388 kts 252°
2026-04-29 17:25 13.02973 0.69621 23844 ft 387 kts 252°
2026-04-29 17:25 13.02169 0.66984 23842 ft 388 kts 252°
2026-04-29 17:25 13.01363 0.64337 23845 ft 389 kts 252°
2026-04-29 17:25 13.00557 0.61688 23843 ft 388 kts 252°
2026-04-29 17:26 12.99754 0.59056 23847 ft 387 kts 252°
2026-04-29 17:26 12.98949 0.56416 23847 ft 388 kts 252°
2026-04-29 17:26 12.98141 0.53768 23850 ft 388 kts 252°
2026-04-29 17:26 12.97336 0.51129 23850 ft 388 kts 252°
2026-04-29 17:27 12.96531 0.48495 23844 ft 388 kts 252°
2026-04-29 17:27 12.95725 0.45855 23847 ft 389 kts 252°
2026-04-29 17:27 12.94917 0.43210 23850 ft 388 kts 252°
2026-04-29 17:27 12.94110 0.40567 23848 ft 388 kts 252°
2026-04-29 17:28 12.93302 0.37927 23847 ft 388 kts 252°
2026-04-29 17:28 12.92503 0.35318 23846 ft 389 kts 252°
2026-04-29 17:28 12.91690 0.32665 23851 ft 388 kts 252°
2026-04-29 17:28 12.90882 0.30025 23853 ft 387 kts 252°
2026-04-29 17:29 12.90348 0.28282 23854 ft 388 kts 252°
2026-04-29 17:29 12.89538 0.25638 23855 ft 388 kts 252°
2026-04-29 17:29 12.88727 0.22992 23859 ft 388 kts 252°
2026-04-29 17:29 12.87919 0.20355 23858 ft 387 kts 252°
2026-04-29 17:30 12.87111 0.17724 23853 ft 388 kts 252°
2026-04-29 17:30 12.86302 0.15084 23859 ft 389 kts 252°
2026-04-29 17:30 12.85491 0.12444 23863 ft 388 kts 252°
2026-04-29 17:30 12.84679 0.09800 23863 ft 388 kts 252°
2026-04-29 17:31 12.83869 0.07168 23860 ft 388 kts 252°
2026-04-29 17:31 12.83057 0.04526 23858 ft 389 kts 252°
2026-04-29 17:31 12.82244 0.01881 23861 ft 388 kts 252°
2026-04-29 17:31 12.81435 -0.00749 23863 ft 387 kts 252°
2026-04-29 17:32 12.80625 -0.03380 23857 ft 387 kts 252°
2026-04-29 17:32 12.79815 -0.06014 23856 ft 388 kts 252°
2026-04-29 17:32 12.79004 -0.08647 23859 ft 387 kts 252°
2026-04-29 17:32 12.78212 -0.11219 23845 ft 377 kts 252°
2026-04-29 17:33 12.77430 -0.13754 23641 ft 371 kts 252°
2026-04-29 17:33 12.76657 -0.16264 23272 ft 369 kts 252°
2026-04-29 17:33 12.75882 -0.18775 22878 ft 368 kts 252°
2026-04-29 17:33 12.75116 -0.21260 22502 ft 365 kts 252°
2026-04-29 17:34 12.74352 -0.23735 22138 ft 363 kts 252°
2026-04-29 17:34 12.73594 -0.26191 21776 ft 360 kts 252°
2026-04-29 17:34 12.72840 -0.28630 21417 ft 358 kts 252°
2026-04-29 17:34 12.72091 -0.31055 21063 ft 356 kts 252°
2026-04-29 17:35 12.70855 -0.35055 20475 ft 352 kts 251°
2026-04-29 17:35 12.69866 -0.38253 20005 ft 350 kts 251°
2026-04-29 17:35 12.69132 -0.40624 19656 ft 349 kts 251°
2026-04-29 17:36 12.68402 -0.42985 19307 ft 347 kts 251°
2026-04-29 17:36 12.67670 -0.45347 18957 ft 346 kts 251°
2026-04-29 17:36 12.66952 -0.47666 18613 ft 345 kts 251°
2026-04-29 17:36 12.66226 -0.50008 18260 ft 345 kts 251°
2026-04-29 17:37 12.65502 -0.52344 17872 ft 344 kts 251°
2026-04-29 17:37 12.64780 -0.54676 17483 ft 342 kts 251°
2026-04-29 17:37 12.64061 -0.56993 17125 ft 341 kts 251°
2026-04-29 17:37 12.63346 -0.59297 16772 ft 339 kts 251°
2026-04-29 17:38 12.62634 -0.61593 16425 ft 337 kts 251°
2026-04-29 17:38 12.61925 -0.63876 16075 ft 336 kts 251°
2026-04-29 17:38 12.61218 -0.66152 15723 ft 335 kts 250°
2026-04-29 17:38 12.60515 -0.68418 15373 ft 334 kts 250°
2026-04-29 17:39 12.59811 -0.70683 15017 ft 333 kts 250°
2026-04-29 17:39 12.59109 -0.72941 14669 ft 333 kts 250°
2026-04-29 17:39 12.58407 -0.75199 14314 ft 333 kts 250°
2026-04-29 17:39 12.57706 -0.77451 13972 ft 332 kts 250°
2026-04-29 17:40 12.57005 -0.79704 13611 ft 333 kts 250°
2026-04-29 17:40 12.56303 -0.81962 13215 ft 333 kts 250°
2026-04-29 17:40 12.55603 -0.84211 12895 ft 330 kts 250°
2026-04-29 17:40 12.54908 -0.86440 12579 ft 327 kts 250°
2026-04-29 17:41 12.54219 -0.88655 12237 ft 326 kts 250°
2026-04-29 17:41 12.53531 -0.90861 11889 ft 325 kts 250°
2026-04-29 17:41 12.52845 -0.93062 11537 ft 324 kts 250°
2026-04-29 17:41 12.52160 -0.95258 11186 ft 323 kts 250°
2026-04-29 17:42 12.51477 -0.97449 10833 ft 323 kts 250°
2026-04-29 17:42 12.50795 -0.99634 10486 ft 322 kts 250°
2026-04-29 17:42 12.50112 -1.01824 10138 ft 322 kts 250°
2026-04-29 17:42 12.49433 -1.03998 9833 ft 320 kts 250°
2026-04-29 17:43 12.48756 -1.06166 9502 ft 317 kts 251°
2026-04-29 17:43 12.48092 -1.08289 9169 ft 309 kts 251°
2026-04-29 17:43 12.47526 -1.10349 8887 ft 300 kts 262°
2026-04-29 17:43 12.47591 -1.12449 8525 ft 293 kts 276°
2026-04-29 17:44 12.47784 -1.14502 8196 ft 286 kts 276°
2026-04-29 17:44 12.47963 -1.16510 7887 ft 280 kts 275°
2026-04-29 17:44 12.48138 -1.18476 7577 ft 275 kts 276°
2026-04-29 17:44 12.48308 -1.20399 7295 ft 267 kts 276°
2026-04-29 17:45 12.48474 -1.22267 7029 ft 260 kts 276°
2026-04-29 17:45 12.48636 -1.24097 6717 ft 256 kts 276°
2026-04-29 17:45 12.48794 -1.25894 6417 ft 251 kts 276°
2026-04-29 17:45 12.48949 -1.27651 6147 ft 242 kts 276°
2026-04-29 17:46 12.49096 -1.29331 5879 ft 233 kts 276°
2026-04-29 17:46 12.49239 -1.30963 5598 ft 228 kts 276°
2026-04-29 17:46 12.49379 -1.32557 5341 ft 222 kts 276°
2026-04-29 17:46 12.49515 -1.34108 5087 ft 216 kts 276°
2026-04-29 17:47 12.49647 -1.35618 4855 ft 210 kts 276°
2026-04-29 17:47 12.49776 -1.37091 4619 ft 205 kts 275°
2026-04-29 17:47 12.49901 -1.38509 4392 ft 200 kts 275°
2026-04-29 17:47 12.50017 -1.39907 4167 ft 195 kts 271°
2026-04-29 17:48 12.49675 -1.41208 3899 ft 190 kts 235°
2026-04-29 17:48 12.48728 -1.42108 3681 ft 184 kts 215°
2026-04-29 17:48 12.47694 -1.42845 3495 ft 179 kts 215°
2026-04-29 17:48 12.46669 -1.43560 3315 ft 178 kts 215°
2026-04-29 17:49 12.45646 -1.44266 3145 ft 176 kts 215°
2026-04-29 17:49 12.44632 -1.44961 2923 ft 174 kts 214°
2026-04-29 17:49 12.43621 -1.45648 2712 ft 174 kts 214°
2026-04-29 17:49 12.42658 -1.46305 2605 ft 158 kts 215°
2026-04-29 17:50 12.41759 -1.46913 2405 ft 152 kts 215°
2026-04-29 17:50 12.40887 -1.47497 2155 ft 149 kts 214°
2026-04-29 17:50 12.40025 -1.48075 1932 ft 148 kts 214°
2026-04-29 17:50 12.39146 -1.48666 1695 ft 152 kts 214°
2026-04-29 17:51 12.38252 -1.49268 1457 ft 156 kts 214°
2026-04-29 17:51 12.37348 -1.49874 1233 ft 156 kts 214°
2026-04-29 17:51 12.36438 -1.50489 1038 ft 157 kts 214°
2026-04-29 17:51 12.35600 -1.51047 1014 ft 115 kts 212°
2026-04-29 17:52 12.35158 -1.51343 1022 ft 43 kts 212°
2026-04-29 17:52 12.35052 -1.51411 1024 ft 17 kts 213°
2026-04-29 17:52 12.35007 -1.51499 1030 ft 12 kts 300°
2026-04-29 17:52 12.35046 -1.51557 1028 ft 8 kts 321°
2026-04-29 17:53 12.35113 -1.51541 1025 ft 13 kts 31°
2026-04-29 17:53 12.35205 -1.51480 1020 ft 16 kts 36°
2026-04-29 17:53 12.35283 -1.51425 1018 ft 15 kts 34°
2026-04-29 17:53 12.35357 -1.51376 1017 ft 13 kts 31°
2026-04-29 17:54 12.35417 -1.51337 1015 ft 8 kts 34°
2026-04-29 17:54 12.35457 -1.51321 1014 ft 5 kts 357°
2026-04-29 17:54 12.35487 -1.51327 1013 ft 3 kts 349°
2026-04-29 17:54 12.35500 -1.51330 1013 ft 0 kts 349°
2026-04-29 18:02 12.35499 -1.51330 1013 ft 0 kts 349°